Brunswick, NC

3:36 PM EST on January 18, 2017 (GMT -0500)
Columbus County Municipal

Weather History for KCPC - August, 2013

Change the Weather History Date:

Sunday, August 11, 2013

  Actual Average (KCRE) Record (KCRE)
Temperature  
Mean Temperature 85 °F -  
Max Temperature 94 °F 84 °F 94 °F (1954)
Min Temperature 76 °F 70 °F 60 °F (2002)
Cooling Degree Days 20    
Growing Degree Days 35 (Base 50)    
Moisture  
Dew Point 75 °F    
Average Humidity 77    
Maximum Humidity 92    
Minimum Humidity 51    
Precipitation  
Precipitation 0.00 in - - ()
Sea Level Pressure  
Sea Level Pressure 30.08 in    
Wind  
Wind Speed 2 mph (SW)    
Max Wind Speed 9 mph    
Max Gust Speed -    
Visibility 10 miles    
Events      
Averages and records for this station are not official NWS values.
T = Trace of Precipitation, MM = Missing Value Source: NWS Daily Summary

Daily Weather History Graph

Daily Weather History Graph

Search for Another Location

Airport or City:

Trip Planner

Search our weather history database for the weather conditions in past years. The results will help you decide how hot, cold, wet, or windy it might be!

Date:

Astronomy

Aug. 11, 2013 Rise Set
Actual Time 6:33 AM EDT 8:06 PM EDT
Civil Twilight 6:06 AM EDT 8:32 PM EDT
Nautical Twilight 5:34 AM EDT 9:05 PM EDT
Astronomical Twilight 5:00 AM EDT 9:38 PM EDT
Moon 11:03 AM EDT (8/11) 10:37 PM EDT (8/11)
Length of Visible Light 14h 26m
Length of Day
13h 32m
Waxing Crescent, 22% of the Moon is Illuminated
Aug 11
Waxing Crescent
Aug 14
First Quarter
Aug 20
Full
Aug 28
Last Quarter
Sep 5
New

Hourly Weather History & Observations

Time (EDT) Temp. Heat Index Dew Point Humidity Pressure Visibility Wind Dir Wind Speed Gust Speed Precip Events Conditions
12:15 AM 78.4 °F - 75.4 °F 90% 30.10 in 10.0 mi Calm Calm - N/A   Clear
12:35 AM 78.1 °F - 75.6 °F 92% 30.09 in 10.0 mi Calm Calm - N/A   Clear
12:55 AM 78.8 °F - 75.4 °F 89% 30.09 in 10.0 mi Calm Calm - N/A   Clear
1:15 AM 78.3 °F - 75.2 °F 90% 30.09 in 10.0 mi SSW 3.5 mph - N/A   Clear
1:35 AM 78.1 °F - 75.2 °F 91% 30.08 in 10.0 mi Calm Calm - N/A   Clear
1:55 AM 77.5 °F - 75.2 °F 92% 30.08 in 10.0 mi Calm Calm - N/A   Clear
2:15 AM 77.9 °F - 75.2 °F 91% 30.09 in 10.0 mi SW 3.5 mph - N/A   Clear
2:35 AM 77.7 °F - 74.7 °F 90% 30.08 in 10.0 mi SW 3.5 mph - N/A   Clear
2:55 AM 77.4 °F - 74.5 °F 91% 30.08 in 10.0 mi Calm Calm - N/A   Clear
3:15 AM 77.2 °F - 74.3 °F 91% 30.08 in 10.0 mi SSW 3.5 mph - N/A   Clear
3:35 AM 77.2 °F - 74.3 °F 91% 30.09 in 10.0 mi Calm Calm - N/A   Clear
3:55 AM 77.0 °F - 73.9 °F 90% 30.10 in 10.0 mi SW 3.5 mph - N/A   Clear
4:15 AM 77.0 °F - 73.8 °F 90% 30.10 in 10.0 mi Calm Calm - N/A   Clear
4:35 AM 76.6 °F - 73.6 °F 90% 30.10 in 10.0 mi Calm Calm - N/A   Scattered Clouds
4:55 AM 76.3 °F - 73.4 °F 91% 30.10 in 10.0 mi Calm Calm - N/A   Mostly Cloudy
5:15 AM 76.8 °F - 73.4 °F 89% 30.10 in 10.0 mi SW 3.5 mph - N/A   Scattered Clouds
5:35 AM 77.0 °F - 73.4 °F 89% 30.10 in 10.0 mi Calm Calm - N/A   Clear
5:55 AM 76.6 °F - 73.0 °F 89% 30.11 in 10.0 mi SW 3.5 mph - N/A   Clear
6:15 AM 76.5 °F - 73.0 °F 89% 30.11 in 10.0 mi SW 4.6 mph - N/A   Clear
6:35 AM 76.5 °F - 73.0 °F 89% 30.11 in 10.0 mi Calm Calm - N/A   Clear
6:55 AM 76.3 °F - 73.0 °F 90% 30.12 in 10.0 mi SW 3.5 mph - N/A   Clear
7:15 AM 77.0 °F - 73.4 °F 89% 30.12 in 10.0 mi SW 3.5 mph - N/A   Clear
7:35 AM 77.4 °F - 73.4 °F 88% 30.12 in 10.0 mi WSW 3.5 mph - N/A   Clear
7:55 AM 78.4 °F - 73.6 °F 85% 30.13 in 10.0 mi SW 4.6 mph - N/A   Clear
8:15 AM 79.2 °F - 73.9 °F 84% 30.13 in 10.0 mi Calm Calm - N/A   Clear
8:35 AM 80.2 °F 85.0 °F 74.3 °F 82% 30.13 in 10.0 mi SW 3.5 mph - N/A   Clear
8:55 AM 81.1 °F 86.6 °F 74.1 °F 79% 30.13 in 10.0 mi WSW 4.6 mph - N/A   Clear
9:15 AM 82.8 °F 89.5 °F 74.7 °F 76% 30.13 in 10.0 mi West 3.5 mph - N/A   Clear
9:35 AM 83.7 °F 91.0 °F 74.5 °F 74% 30.13 in 10.0 mi Calm Calm - N/A   Clear
9:55 AM 84.4 °F 92.0 °F 74.7 °F 72% 30.12 in 10.0 mi SSW 6.9 mph - N/A   Clear
10:15 AM 85.3 °F 93.4 °F 74.7 °F 70% 30.12 in 10.0 mi Calm Calm - N/A   Clear
10:35 AM 86.5 °F 95.5 °F 74.7 °F 68% 30.12 in 10.0 mi Calm Calm - N/A   Clear
10:55 AM 87.1 °F 96.3 °F 75.0 °F 67% 30.12 in 10.0 mi Calm Calm - N/A   Clear
11:15 AM 88.9 °F 99.2 °F 75.2 °F 64% 30.12 in 10.0 mi WSW 4.6 mph - N/A   Clear
11:35 AM 89.2 °F 99.0 °F 74.7 °F 62% 30.12 in 10.0 mi Calm Calm - N/A   Clear
11:55 AM 89.8 °F 98.6 °F 73.9 °F 59% 30.11 in 10.0 mi West 4.6 mph - N/A   Scattered Clouds
12:15 PM 90.0 °F 99.0 °F 73.8 °F 59% 30.11 in 10.0 mi West 4.6 mph - N/A   Scattered Clouds
12:35 PM 90.1 °F 99.4 °F 73.9 °F 59% 30.11 in 10.0 mi West 3.5 mph - N/A   Scattered Clouds
12:55 PM 91.0 °F 99.8 °F 73.4 °F 56% 30.09 in 10.0 mi West 5.8 mph - N/A   Mostly Cloudy
1:15 PM 91.9 °F 101.9 °F 74.1 °F 56% 30.09 in 10.0 mi SW 6.9 mph - N/A   Scattered Clouds
1:35 PM 89.6 °F 98.7 °F 73.9 °F 60% 30.09 in 10.0 mi WNW 5.8 mph - N/A   Scattered Clouds
1:55 PM 86.2 °F 95.5 °F 75.4 °F 70% 30.09 in 10.0 mi Calm Calm - N/A   Mostly Cloudy
2:15 PM 89.1 °F 100.2 °F 75.9 °F 65% 30.08 in 10.0 mi Calm Calm - N/A   Scattered Clouds
2:35 PM 88.9 °F 99.7 °F 75.6 °F 65% 30.07 in 10.0 mi Calm Calm - N/A   Scattered Clouds
2:55 PM 92.5 °F 103.2 °F 74.8 °F 56% 30.06 in 10.0 mi Calm Calm - N/A   Scattered Clouds
3:15 PM 91.8 °F 103.4 °F 75.6 °F 59% 30.05 in 10.0 mi Calm Calm - N/A   Scattered Clouds
3:35 PM 93.0 °F 103.2 °F 74.1 °F 54% 30.05 in 10.0 mi SW 8.1 mph - N/A   Clear
3:55 PM 93.4 °F 102.1 °F 72.9 °F 51% 30.04 in 10.0 mi SSW 4.6 mph - N/A   Scattered Clouds
4:15 PM 94.1 °F 104.5 °F 73.8 °F 52% 30.04 in 10.0 mi SW 4.6 mph - N/A   Scattered Clouds
4:35 PM 94.1 °F 103.8 °F 73.2 °F 51% 30.04 in 10.0 mi SSW 4.6 mph - N/A   Scattered Clouds
4:55 PM 93.6 °F 102.5 °F 72.9 °F 51% 30.04 in 10.0 mi SW 3.5 mph - N/A   Mostly Cloudy
5:15 PM 91.6 °F 101.1 °F 74.1 °F 56% 30.03 in 10.0 mi Calm Calm - N/A   Mostly Cloudy
5:35 PM 90.3 °F 104.2 °F 77.5 °F 66% 30.04 in 10.0 mi SE 6.9 mph - N/A   Overcast
5:55 PM 89.4 °F 102.9 °F 77.5 °F 68% 30.03 in 10.0 mi SE 8.1 mph - N/A   Mostly Cloudy
6:15 PM 89.1 °F 102.6 °F 77.5 °F 69% 30.03 in 10.0 mi SE 9.2 mph - N/A   Mostly Cloudy
6:35 PM 88.9 °F 102.7 °F 77.9 °F 70% 30.03 in 10.0 mi SSE 5.8 mph - N/A   Scattered Clouds
6:55 PM 88.0 °F 100.2 °F 77.0 °F 70% 30.03 in 10.0 mi SSE 6.9 mph - N/A   Clear
7:15 PM 87.1 °F 98.3 °F 76.8 °F 71% 30.03 in 10.0 mi SSE 3.5 mph - N/A   Clear
7:35 PM 86.2 °F 96.9 °F 76.5 °F 73% 30.03 in 10.0 mi Calm Calm - N/A   Scattered Clouds
7:55 PM 85.3 °F 95.4 °F 76.5 °F 75% 30.04 in 10.0 mi South 3.5 mph - N/A   Scattered Clouds
8:15 PM 84.2 °F 93.8 °F 76.6 °F 78% 30.04 in 10.0 mi Calm Calm - N/A   Scattered Clouds
8:35 PM 83.3 °F 92.1 °F 76.5 °F 80% 30.05 in 10.0 mi Calm Calm - N/A   Clear
8:55 PM 82.9 °F 91.5 °F 76.6 °F 81% 30.05 in 10.0 mi Calm Calm - N/A   Clear
9:15 PM 82.2 °F 90.1 °F 76.6 °F 83% 30.05 in 10.0 mi Calm Calm - N/A   Clear
9:35 PM 81.5 °F 88.7 °F 76.6 °F 85% 30.05 in 10.0 mi South 3.5 mph - N/A   Clear
9:55 PM 81.1 °F 88.2 °F 77.0 °F 87% 30.05 in 10.0 mi Calm Calm - N/A   Clear
10:15 PM 80.8 °F 87.4 °F 76.8 °F 88% 30.06 in 10.0 mi Calm Calm - N/A   Clear
10:35 PM 80.4 °F 86.5 °F 76.6 °F 88% 30.06 in 10.0 mi SSW 3.5 mph - N/A   Clear
10:55 PM 79.9 °F - 76.6 °F 90% 30.06 in 10.0 mi South 3.5 mph - N/A   Clear
11:15 PM 80.2 °F 86.0 °F 76.5 °F 88% 30.06 in 10.0 mi SSW 3.5 mph - N/A   Clear
11:35 PM 80.1 °F 85.5 °F 76.1 °F 88% 30.07 in 10.0 mi SSW 3.5 mph - N/A   Clear
11:55 PM 79.3 °F - 76.1 °F 90% 30.07 in 10.0 mi SW 3.5 mph - N/A   Clear